Regional Weather Roundup
Issued by NWS

Home | Current Version | Previous Version | Graphics & Text | Print | Product List | Glossary On
Versions: 1 2 3 4 5 6 7 8 9 10 11 12 13 14 15 16 17 18 19 20 21 22 23 24 25 26 27 28 29 30 31 32 33 34 35 36 37 38 39 40 41 42 43 44 45 46 47 48 49 50
000
ASUS45 KCYS 312310
RWRWY

WYOMING REGIONAL WEATHER ROUNDUP
NATIONAL WEATHER SERVICE CHEYENNE WY
500 PM MDT FRI JUL 31 2015

NOTE:  "FAIR" INDICATES FEW OR NO CLOUDS BELOW 12,000 FEET
WITH NO SIGNIFICANT WEATHER AND/OR OBSTRUCTIONS TO VISIBILITY.

WYZ001-010000-
YELLOWSTONE NATIONAL PARK

CITY           SKY/WX    TMP DP  RH WIND       PRES   REMARKS
LK YELLOWSTONE   N/A     76  32  20 VRB5      30.45F
W YELLOWSTONE  NOT AVBL

$$
WYZ002>013-054>058-071-098>099-010000-
NORTHERN WYOMING

CITY           SKY/WX    TMP DP  RH WIND       PRES   REMARKS
JACKSON        SUNNY     82  30  15 CALM      30.33F
CODY           FAIR      88  39  18 NE9       30.19F
GREYBULL       FAIR      95  25   8 VRB3      30.09F
WORLAND        FAIR      94  28   9 NE7       30.11F
SHERIDAN       FAIR      93  36  13 VRB3      30.12F
BUFFALO        FAIR      90  36  14 VRB6      30.20S
GILLETTE       FAIR      93  39  15 NE9       30.15F
HULETT         FAIR      86  46  25 E10G16    30.18F
NEWCASTLE      FAIR      91  34  13 S7        30.15F

$$
WYZ014>020-022>026-101>103-010000-
CENTRAL WYOMING

CITY           SKY/WX    TMP DP  RH WIND       PRES   REMARKS
BIG PINEY      FAIR      83  26  12 VRB5      30.34F
PINEDALE       FAIR      82  18   9 N8G16     30.35F
DUBOIS         FAIR      81  27  13 NW9       30.34S
LANDER         FAIR      91  27  10 MISG      30.18F
RIVERTON       FAIR      91  30  11 N9        30.20F
CASPER         FAIR      90  25   9 SW10G17   30.19F
DOUGLAS        FAIR      89  31  12 VRB7      30.18F

$$
WYZ021-027>030-104>119-010000-
SOUTHERN WYOMING

CITY           SKY/WX    TMP DP  RH WIND       PRES   REMARKS
EVANSTON       FAIR      84  22  10 N8G22     30.35F
KEMMERER       FAIR      82  19   9 W12       30.38F
FORT BRIDGER   CLEAR     88  16   7 N8        30.36F
ROCK SPRINGS   FAIR      85  20   9 SW9G29    30.30F
DIXON          FAIR      91  25   9 W3G16     30.29F
RAWLINS        FAIR      87  19   8 VRB5      30.30F
SARATOGA       FAIR      86  23  10 N7        30.32F
LARAMIE        FAIR      77  44  30 E18G24    30.35F
CHEYENNE       FAIR      80  49  33 SE10      30.30F
TORRINGTON     FAIR      88  47  24 S20       30.15F
PINE BLUFFS    FAIR      82  48  30 E9        30.25F

$$


USA.gov is the U.S. government's official web portal to all federal, state and local government web resources and services.